map of LTO home
LTO - Airport
Location
City:  Loreto, Baja California Sur, México
Name:Loreto International Airport
ICAO:MMLT
IATA:LTO

Details
Type:Airport (Aerodrome, Airfield)
Use:International (customs port of entry)
Latitude:25°59'21"N (25.989194)
Longitude:111°20'54"W (-111.348360)
Datum:WGS 1984
Elevation:34 ft (10 m)
Variation:8.98°E (WMM2015 magnetic declination)
-0.09° annual change
Runways:1
Longest:7218 × 148 ft (2200 × 45 m), paved

Time
Time Zone:UTC-7 (DST-6)
Local Time:

Weather
METAR:MMLT 170150Z 02010KT 10SM FEW060 FEW130 20/15 A3008 RMK 8/530
TAF:MMLT 161704Z 1618/1718 34012KT 6SM VC RA SCT030 OVC070
FM170000 34010KT P6SM BKN250

Related Locations
Nearby:
Farthest:RRG: 11891 mi / 19137 km
Plaine Corail [Sir Gaëtan Duval Airport (Plaine Corail Airport)], Rodrigues Island, MU

Find:

   beyond  
but within

Other Information
Maps:
NOTAMs:
Links:
Sources:

  
  • flag of México
  • flag of Baja California Sur
  

Sectional Chart

Flight Planning
at skyvector.com

Satellite Image

Google Maps Satellite view

 

Copyright © 2004-2018 Karl L. Swartz. All rights reserved.
The Great Circle Mapper name and logo are trademarks of the Great Circle Mapper.
All other trademarks mentioned herein belong to their respective owners.
Please see credits for attibutions and further copyright information.

  Follow gcmap on Facebook Follow gcmap on Twitter Follow gcmap on Google+ GCmap on LinkedIn

hCard Microformat

Geo Microformat